This is the latest recevied weather packets stored in our database for station/object N4PWG. If no packets are shown the sender has not sent any weather packets the latest 10 day(s).
| Time | Temp. | Humidity | Pressure | Rain* | Wind** | Luminosity | Snow |
|---|---|---|---|---|---|---|---|
| 1778110031 | 12.78° C | 94% | 1031.3 hPa | 0 mm | - | 26 W/m² | - |
| 1778109726 | 12.78° C | 93% | 1031.2 hPa | 0 mm | - | 23 W/m² | - |
| 1778109424 | 12.78° C | 95% | 1031.4 hPa | 0 mm | - | 24 W/m² | - |
| 1778109122 | 12.78° C | 95% | 1030.8 hPa | 0 mm | - | 29 W/m² | - |
| 1778108818 | 12.78° C | 94% | 1031.1 hPa | 0 mm | - | 39 W/m² | - |
| 1778108515 | 12.78° C | 96% | 1030.8 hPa | 0 mm | - | 55 W/m² | - |
| 1778108212 | 12.78° C | 96% | 1030.7 hPa | 0 mm | - | 64 W/m² | - |
| 1778107909 | 12.78° C | 96% | 1030.5 hPa | 0 mm | - | 33 W/m² | - |
| 1778107605 | 12.78° C | 97% | 1030.4 hPa | 0 mm | - | 31 W/m² | - |
| 1778107302 | 12.78° C | 97% | 1030.2 hPa | 0 mm | - | 27 W/m² | - |
| 1778106998 | 12.78° C | 97% | 1030.6 hPa | 0 mm | - | 37 W/m² | - |
| 1778106694 | 12.78° C | 97% | 1031.1 hPa | 0 mm | - | 41 W/m² | - |
| 1778106391 | 12.78° C | 97% | 1030.9 hPa | 0 mm | - | 45 W/m² | - |
| 1778106087 | 12.78° C | 97% | 1031.2 hPa | 0 mm | - | 73 W/m² | - |
| 1778105785 | 12.78° C | 98% | 1031.3 hPa | 0 mm | - | 64 W/m² | - |
| 1778105483 | 12.78° C | 98% | 1031.2 hPa | 0 mm | - | 67 W/m² | - |
| 1778105180 | 12.78° C | 98% | 1031.9 hPa | 0 mm | - | 62 W/m² | - |
| 1778104875 | 12.78° C | 97% | 1032 hPa | 1.78 mm | - | 38 W/m² | - |
| 1778104572 | 12.78° C | 96% | 1032 hPa | 1.78 mm | - | 42 W/m² | - |
| 1778104267 | 12.78° C | 95% | 1032 hPa | 0 mm | - | 35 W/m² | - |
| 1778103965 | 12.78° C | 95% | 1031.9 hPa | 0 mm | - | 33 W/m² | - |
| 1778103662 | 12.78° C | 95% | 1031.8 hPa | 0 mm | - | 44 W/m² | - |
| 1778103360 | 12.78° C | 93% | 1032.1 hPa | 0 mm | - | 43 W/m² | - |
| 1778103057 | 12.78° C | 94% | 1032.1 hPa | 0 mm | - | 51 W/m² | - |
| 1778102753 | 12.78° C | 93% | 1031.9 hPa | 0 mm | - | 55 W/m² | - |
* Rain latest hour (hover to see other rain measurements)
** Current wind speed in m/s (hover to see current wind gust speed)